Cross City, FL

3:57 AM EDT on September 18, 2019 (GMT -0400)
Cross City

Weather History for KCTY - August, 2019

Change the Weather History Date:

Sunday, August 25, 2019

  Actual Average Record
Temperature  
Mean Temperature 86 °F 81 °F  
Max Temperature 95 °F 91 °F 95 °F (2001)
Min Temperature 77 °F 71 °F 66 °F (2012)
Degree Days  
Heating Degree Days 0    
Month to date heating degree days 0  
Since 1 June heating degree days 0  
Since 1 July heating degree days 0  
Cooling Degree Days 21    
Month to date cooling degree days 437  
Year to date cooling degree days 2145  
Since 1 June cooling degree days 1461  
Growing Degree Days 35 (Base 50)    
Moisture  
Dew Point 76 °F    
Average Humidity 80    
Maximum Humidity 96    
Minimum Humidity 50    
Precipitation  
Precipitation 0.00 in 0.27 in 1.84 in (2010)
Month to date precipitation 9.34 5.95  
Year to date precipitation 45.18 33.87  
Sea Level Pressure  
Sea Level Pressure 29.96 in    
Wind  
Wind Speed 5 mph (NE)    
Max Wind Speed 10 mph    
Max Gust Speed 18 mph    
Visibility 10 miles    
Events Thunderstorm    
T = Trace of Precipitation, MM = Missing Value Source: NWS Daily Summary

Daily Weather History Graph

Daily Weather History Graph

Search for Another Location

Airport or City:

Astronomy

Aug. 25, 2019 Rise Set
Actual Time 7:05 AM EDT 8:02 PM EDT
Civil Twilight 6:41 AM EDT 8:27 PM EDT
Nautical Twilight 6:12 AM EDT 8:56 PM EDT
Astronomical Twilight 5:42 AM EDT 9:25 PM EDT
Moon 1:52 AM EDT (8/25) 4:07 PM EDT (8/25)
Length of Visible Light 13h 46m
Length of Day
12h 56m
Waning Crescent, 29% of the Moon is Illuminated
Aug 25
Waning Crescent
Aug 30
New
Sep 5
First Quarter
Sep 14
Full
Sep 21
Last Quarter

Hourly Weather History & Observations

Time (EDT) Temp. Heat Index Dew Point Humidity Pressure Visibility Wind Dir Wind Speed Gust Speed Precip Events Conditions
12:15 AM 82.0 °F 89.7 °F 76.3 °F 83% 30.00 in 10.0 mi ENE 4.6 mph - N/A   Scattered Clouds
12:35 AM 82.0 °F 89.4 °F 76.1 °F 82% 29.99 in 10.0 mi ENE 4.6 mph - N/A   Clear
12:55 AM 81.7 °F 88.3 °F 75.2 °F 81% 29.98 in 10.0 mi ENE 4.6 mph - N/A   Clear
1:15 AM 81.1 °F 87.4 °F 75.4 °F 83% 29.98 in 10.0 mi ENE 4.6 mph - N/A   Clear
1:35 AM 80.8 °F 86.7 °F 75.4 °F 84% 29.97 in 10.0 mi NE 3.5 mph - N/A   Clear
1:55 AM 80.2 °F 85.4 °F 75.0 °F 84% 29.97 in 10.0 mi Calm Calm - N/A   Mostly Cloudy
2:15 AM 79.9 °F - 75.4 °F 86% 29.96 in 10.0 mi Calm Calm - N/A   Overcast
2:35 AM 79.7 °F - 75.6 °F 87% 29.95 in 10.0 mi Calm Calm - N/A   Overcast
2:55 AM 79.3 °F - 75.2 °F 87% 29.94 in 10.0 mi ENE 4.6 mph - N/A   Overcast
3:15 AM 79.2 °F - 75.2 °F 88% 29.94 in 10.0 mi East 4.6 mph - N/A   Scattered Clouds
3:35 AM 78.8 °F - 75.2 °F 89% 29.94 in 10.0 mi ENE 3.5 mph - N/A   Clear
3:55 AM 78.4 °F - 75.6 °F 91% 29.94 in 10.0 mi North 5.8 mph - N/A   Clear
4:15 AM 78.3 °F - 75.9 °F 92% 29.94 in 10.0 mi NE 3.5 mph - N/A   Scattered Clouds
4:35 AM 78.1 °F - 75.6 °F 92% 29.92 in 10.0 mi East 4.6 mph - N/A   Scattered Clouds
4:55 AM 77.9 °F - 75.4 °F 92% 29.92 in 10.0 mi NE 3.5 mph - N/A   Clear
5:15 AM 77.7 °F - 75.4 °F 92% 29.93 in 10.0 mi NE 3.5 mph - N/A   Clear
5:35 AM 77.4 °F - 75.2 °F 93% 29.93 in 10.0 mi NE 4.6 mph - N/A   Clear
5:55 AM 77.4 °F - 75.2 °F 93% 29.94 in 10.0 mi NE 4.6 mph - N/A   Clear
6:15 AM 77.0 °F - 75.2 °F 94% 29.95 in 10.0 mi Calm Calm - N/A   Clear
6:35 AM 77.0 °F - 75.4 °F 95% 29.95 in 10.0 mi Calm Calm - N/A   Clear
6:55 AM 77.0 °F - 75.2 °F 94% 29.96 in 10.0 mi NNE 3.5 mph - N/A   Clear
7:15 AM 76.8 °F - 75.6 °F 96% 29.97 in 10.0 mi NE 4.6 mph - N/A   Clear
7:35 AM 77.0 °F - 75.6 °F 95% 29.97 in 10.0 mi NE 6.9 mph - N/A   Clear
7:55 AM 77.5 °F - 75.9 °F 95% 29.98 in 10.0 mi NE 5.8 mph - N/A   Clear
8:15 AM 78.8 °F - 75.2 °F 89% 29.98 in 10.0 mi ENE 5.8 mph - N/A   Clear
8:55 AM 81.0 °F 87.7 °F 76.6 °F 87% 29.99 in 10.0 mi ENE 6.9 mph - N/A   Clear
9:15 AM 82.2 °F 90.7 °F 77.2 °F 85% 29.99 in 10.0 mi East 5.8 mph - N/A   Scattered Clouds
9:35 AM 82.2 °F 90.1 °F 76.6 °F 83% 30.00 in 10.0 mi ENE 8.1 mph - N/A   Scattered Clouds
9:55 AM 82.8 °F 90.7 °F 76.1 °F 80% 30.00 in 10.0 mi ENE 6.9 mph - N/A   Scattered Clouds
10:15 AM 85.1 °F 94.9 °F 76.3 °F 75% 30.00 in 10.0 mi ENE 6.9 mph - N/A   Scattered Clouds
10:35 AM 86.2 °F 96.4 °F 76.1 °F 72% 30.01 in 10.0 mi East 6.9 mph - N/A   Mostly Cloudy
10:55 AM 87.1 °F 96.8 °F 75.4 °F 68% 30.01 in 10.0 mi NE 6.9 mph - N/A   Mostly Cloudy
11:35 AM 87.6 °F 97.1 °F 75.2 °F 66% 30.00 in - NE 5.8 mph - N/A   Clear
11:55 AM 87.6 °F 97.1 °F 75.2 °F 66% 30.00 in 10.0 mi East 5.8 mph - N/A   Clear
12:15 PM 89.8 °F 100.9 °F 75.6 °F 63% 30.00 in 10.0 mi ENE 5.8 mph - N/A   Clear
12:35 PM 89.6 °F 100.4 °F 75.6 °F 63% 30.00 in 10.0 mi NNE 6.9 mph - N/A   Scattered Clouds
12:55 PM 89.4 °F 101.1 °F 76.1 °F 65% 29.99 in 10.0 mi NE 5.8 mph - N/A   Scattered Clouds
1:15 PM 89.1 °F 100.2 °F 75.9 °F 65% 29.99 in 10.0 mi NE 5.8 mph - N/A   Mostly Cloudy
1:35 PM 88.7 °F 99.3 °F 75.4 °F 65% 29.98 in 10.0 mi NNE 8.1 mph - N/A   Mostly Cloudy
1:55 PM 90.5 °F 102.1 °F 75.9 °F 62% 29.98 in 10.0 mi East 5.8 mph - N/A   Mostly Cloudy
2:15 PM 91.6 °F 102.3 °F 75.0 °F 58% 29.97 in 10.0 mi NE 6.9 mph - N/A   Mostly Cloudy
2:35 PM 91.9 °F 101.9 °F 74.3 °F 56% 29.97 in 10.0 mi East 3.5 mph - N/A   Scattered Clouds
3:15 PM 91.8 °F 98.1 °F 70.9 °F 50% 29.94 in 10.0 mi ENE 6.9 mph - N/A   Clear
3:55 PM 93.4 °F 102.8 °F 73.6 °F 52% 29.93 in 10.0 mi NE 6.9 mph - N/A   Scattered Clouds
4:15 PM 94.1 °F 105.2 °F 74.7 °F 53% 29.92 in 10.0 mi NE 4.6 mph - N/A   Scattered Clouds
4:35 PM 92.8 °F 102.8 °F 73.9 °F 54% 29.92 in 10.0 mi East 5.8 mph - N/A   Mostly Cloudy
4:55 PM 93.2 °F 102.4 °F 73.0 °F 52% 29.92 in 10.0 mi Calm Calm - N/A   Mostly Cloudy
5:15 PM 91.0 °F 101.6 °F 75.0 °F 59% 29.91 in 10.0 mi NE 6.9 mph - N/A   Mostly Cloudy
5:30 PM 90.3 °F 101.0 °F 75.2 °F 61% 29.91 in 10.0 mi NE 5.8 mph - N/A   Scattered Clouds
5:55 PM 87.6 °F 97.6 °F 75.6 °F 67% 29.92 in 10.0 mi East 10.4 mph - N/A   Clear
6:15 PM 85.1 °F 94.5 °F 75.9 °F 74% 29.92 in 10.0 mi NE 12.7 mph 18.4 mph N/A   Clear
6:35 PM 82.6 °F 90.2 °F 75.7 °F 80% 29.92 in 10.0 mi NE 9.2 mph - N/A   Scattered Clouds
6:55 PM 81.7 °F 88.7 °F 76.1 °F 83% 29.93 in 10.0 mi NE 5.8 mph - N/A Thunderstorm Scattered Clouds
7:15 PM 81.1 °F 88.0 °F 76.5 °F 86% 29.93 in 10.0 mi NE 6.9 mph - N/A   Mostly Cloudy
7:35 PM 81.1 °F 88.0 °F 76.5 °F 86% 29.93 in 10.0 mi NE 6.9 mph - N/A   Scattered Clouds
7:55 PM 80.6 °F 87.1 °F 77.2 °F 89% 29.94 in 10.0 mi NE 6.9 mph - N/A   Scattered Clouds
8:15 PM 80.4 °F 86.8 °F 77.2 °F 90% 29.94 in 10.0 mi NE 4.6 mph - N/A   Scattered Clouds
8:35 PM 79.9 °F - 76.1 °F 88% 29.95 in 10.0 mi NE 5.8 mph - N/A   Clear
8:55 PM 79.7 °F - 76.1 °F 89% 29.96 in 10.0 mi NE 5.8 mph - N/A   Clear
9:15 PM 79.2 °F - 75.9 °F 90% 29.97 in 10.0 mi NE 4.6 mph - N/A   Scattered Clouds
9:35 PM 79.0 °F - 76.1 °F 91% 29.99 in 10.0 mi NE 5.8 mph - N/A   Scattered Clouds
9:55 PM 78.8 °F - 75.7 °F 90% 29.99 in 10.0 mi NE 5.8 mph - N/A   Scattered Clouds
10:15 PM 78.8 °F - 75.2 °F 89% 29.99 in 10.0 mi East 4.6 mph - N/A   Overcast
10:35 PM 79.2 °F - 75.6 °F 89% 30.00 in 10.0 mi ENE 6.9 mph - N/A   Overcast
10:55 PM 79.2 °F - 75.0 °F 87% 30.00 in 10.0 mi ENE 6.9 mph - N/A   Overcast
11:15 PM 79.0 °F - 75.0 °F 88% 30.00 in 10.0 mi ENE 5.8 mph - N/A   Mostly Cloudy
11:55 PM 78.6 °F - 74.7 °F 88% 30.01 in 10.0 mi NE 5.8 mph - N/A   Overcast